Regional Weather Roundup
Issued by NWS

Home | Current Version | Previous Version | Graphics & Text | Print | Product List | Glossary On
Versions: 1 2 3 4 5 6 7 8 9 10 11 12 13 14 15 16 17 18 19 20 21 22 23 24 25 26 27 28 29 30 31 32
000
ASUS45 KBOU 211107
RWRCO

WEATHER ROUNDUP FOR COLORADO
NATIONAL WEATHER SERVICE DENVER/BOULDER CO
500 AM MDT TUE OCT 21 2014

NOTE: "FAIR" INDICATES FEW OR NO CLOUDS BELOW 12000 FEET WITH NO
SIGNIFICANT WEATHER AND/OR OBSTRUCTIONS TO VISIBILITY.

COZ001>005-013-030-031-211200-
...NORTHWEST COLORADO...

CITY           SKY/WX    TMP DP  RH WIND       PRES   REMARKS
CRAIG          MOCLDY    37  33  85 CALM      30.10F
HAYDEN         CLOUDY    43  34  70 E9        30.12S
MEEKER         PTCLDY    39  34  82 E5        30.11F
MOUNT WERNER   NOT AVBL
STEAMBOAT SPGS CLOUDY    38  33  83 CALM      30.14S
WALDEN         CLEAR     30  27  86 CALM      30.19S
$$

COZ006>008-011-211200-
...WEST CENTRAL VALLEYS...

CITY           SKY/WX    TMP DP  RH WIND       PRES   REMARKS
GRAND JUNCTION CLOUDY    57  38  48 E14       30.04S
MONTROSE       CLOUDY    51  39  63 CALM      30.13R
EAGLE          MOCLDY    41  36  81 CALM      30.18S
RIFLE          MOCLDY    44  37  76 SE3       30.09S
DELTA          MOCLDY    54  41  61 NE3       30.10S
NUCLA          CLOUDY    52  41  66 CALM      30.16
$$

COZ017>023-064>068-211200-
...SOUTHWEST COLORADO...

CITY           SKY/WX    TMP DP  RH WIND       PRES   REMARKS
DURANGO        CLOUDY    50  43  77 CALM      30.20S
CORTEZ         MOCLDY    53  42  66 NW5       30.14S
PAGOSA SPRINGS CLOUDY    47  42  82 CALM      30.25F
TELLURIDE      CLOUDY    46  39  76 E7        30.29F
WOLF CREEK PAS MOCLDY    32  32 100 SW14      30.40S WCI  22
$$

COZ009-010-012-014-032>034-037-058>063-211200-
...CENTRAL COLORADO...

CITY           SKY/WX    TMP DP  RH WIND       PRES   REMARKS
ASPEN          MOCLDY    38  32  79 NW3       30.18F
BUENA VISTA    CLEAR     35  31  85 W8        30.24S WCI  28
COPPER MTN     CLEAR     41  28  60 S22       30.40R
BERTHOUD PASS  FAIR      32  30  93 W13       30.42R WCI  22
COTTONWOOD PAS CLEAR     43  32  65 CALM      30.31S
GUNNISON       PTCLDY    37  30  75 CALM      30.26S
KREMMLING      CLEAR     30  27  86 CALM        N/A
LEADVILLE      CLEAR     29  28  96 NE5       30.30S WCI  24
SALIDA         CLEAR     43  34  70 NW6       30.29S
SUNLIGHT       MOCLDY    41  34  75 CALM      30.33F
WILKERSON PASS NOT AVBL
$$

COZ069>075-211200-
...SAN LUIS VALLEY/SANGRE DE CRISTO MOUNTAINS...

CITY           SKY/WX    TMP DP  RH WIND       PRES   REMARKS
ALAMOSA        CLEAR     35  31  85 S7        30.23S WCI  29
LA VETA PASS   CLEAR     37  34  87 SW7       30.32S
SAGUACHE       PTCLDY    36  32  87 NW9       30.25S
$$

COZ035-036-038>040-211200-
...NORTHERN COLORADO FRONT RANGE...

CITY           SKY/WX    TMP DP  RH WIND       PRES   REMARKS
DENVER INTL AP CLEAR     51  37  58 W13       30.03R
DMNS CITY PARK   N/A     53  35  50 S2        30.03S
AURORA         PTCLDY    52  37  58 S14       30.05R
FRONT RANGE AP NOT AVBL
ERIE MUNI ARPT CLEAR     42  37  83 SW3       30.03R
BOULDER MUN AP CLEAR     46  37  71 S3        30.03R
CENTENNIAL     CLEAR     51  36  56 S10       30.06R
BROOMFIELD     CLEAR     52  36  54 CALM      30.04F
FORT COLLINS   CLEAR     45  36  70 CALM      30.03S
LONGMONT       CLEAR     42  37  84 CALM      30.04S
$$

COZ041-046-047-076>085-087-088-211200-
...PIKES PEAK/PALMER DIVIDE AND SOUTHERN FOOTHILLS...

CITY           SKY/WX    TMP DP  RH WIND       PRES   REMARKS
COLO. SPRINGS  CLEAR     41  38  89 N6        30.12F
A. F. ACADEMY  CLEAR     36  34  94 N6        30.13F
ELLICOTT       CLEAR     40  38  93 NE5       30.11S
FALCON         CLEAR     41  38  89 NW5       30.15S
FORT CARSON    CLEAR     43  37  79 NW8       30.09F
LIMON          CLEAR     41  41 100 E6        30.09S
MONUMENT HILL  CLEAR     43  36  75 SW8       30.13S
TRINIDAD       CLEAR     50  41  71 SW9       30.11F
$$

COZ042>045-048>051-090-091-211200-
...NORTHEAST COLORADO...

CITY           SKY/WX    TMP DP  RH WIND       PRES   REMARKS
GREELEY ARPT   CLEAR     37  28  70 NW5       30.02S
AKRON          CLEAR     51  48  89 S12       30.02S
BURLINGTON     CLEAR     52  50  93 S13       30.07S
WRAY           CLEAR     53  48  83 S7        30.03S
STERLING       CLEAR     45  41  87 CALM      30.00S
HOLYOKE        CLEAR     45  39  81 S6        30.03S
FORT MORGAN    CLEAR     45  40  81 CALM      30.02R
$$

COZ086-089-092>099-211200-
...SOUTHEAST COLORADO...

CITY           SKY/WX    TMP DP  RH WIND       PRES   REMARKS
PUEBLO         CLEAR     44  39  82 SW6       30.07R
LA JUNTA       CLEAR     48  46  93 CALM      30.05F
LAMAR          CLEAR     44  43  96 CALM      30.04F FOG
SPRINGFIELD      N/A     46  45  96 SW7       30.08S
$$


USA.gov is the U.S. government's official web portal to all federal, state and local government web resources and services.